Regional Weather Roundup
Issued by NWS Charleston, SC

Current Version | Previous Version | Graphics & Text | Print | Product List | Glossary On
Versions: 1 2 3 4 5 6 7 8 9 10 11 12 13 14 15 16 17 18 19 20 21 22 23 24 25 26 27 28 29 30 31 32 33 34 35 36 37 38 39 40 41 42 43 44 45 46 47 48 49 50
000 ASUS42 KCHS 280028 RWRCHS REGIONAL WEATHER ROUNDUP NATIONAL WEATHER SERVICE CHARLESTON SC 800 PM EDT WED JUL 27 2016 NOTE: "FAIR" INDICATES FEW OR NO CLOUDS BELOW 12,000 FEET WITH NO SIGNIFICANT WEATHER AND/OR OBSTRUCTIONS TO VISIBILITY. NOT ALL STATIONS ARE QUALITY CONTROLLED. USE DATA WITH CAUTION... ESPECIALLY DEWPOINT OBSERVATIONS. SCZ027-030-031-034>040-042>050-280100- ...SOUTHEAST SOUTH CAROLINA... CITY SKY/WX TMP DP RH WIND PRES REMARKS N CHARLESTON CLEAR 89 77 67 SW10 29.96S HX 101 6HR MIN TEMP: 89; 6HR MAX TEMP: 96; WATERFRONT PRK N/A 88 80 77 SW9 29.95S HX 104 MOUNT PLEASANT FAIR 88 79 74 CALM 29.96S HX 102 JOHNS ISLAND FAIR 86 81 84 S9 29.97S HX 102 PINOPOLIS N/A 93 75 55 SW7 29.87S HX 104 MONCKS CORNER FAIR 84 70 61 CALM 29.95S SUMMERVILLE FAIR 90 73 58 S3 29.96F HX 98 BEAUFORT MCAS PTCLDY 90 78 68 VRB5 29.97S HX 104 6HR MIN TEMP: 90; 6HR MAX TEMP: 99; BEAUFORT ARPT FAIR 86 79 79 S8 29.96F HX 99 HILTON HEAD IS CLEAR 88 79 74 S13 29.98S HX 102 WALTERBORO CLEAR 91 72 52 SW3 29.97S HX 98 ALLENDALE FAIR 91 72 52 CALM 29.96R HX 98 ...SOUTHERN MIDLANDS AND PEE DEE... CITY SKY/WX TMP DP RH WIND PRES REMARKS GEORGETOWN FAIR 84 77 79 S7 29.96S HX 94 KINGSTREE FAIR 88 70 55 CALM 29.94S HX 92 ORANGEBURG CLEAR 92 72 51 SW7 29.95S HX 99 6HR MIN TEMP: 92; 6HR MAX TEMP: 97; BARNWELL NOT AVBL AIKEN FAIR 90 68 48 SW6 30.00S HX 93 MANNING FAIR 90 72 55 SW6 29.95S HX 96 COLUMBIA PTCLDY 95 70 44 SW12 29.93R HX 101 6HR MIN TEMP: 95; 6HR MAX TEMP: 101; SUMTER CLEAR 92 74 55 SW9 29.91S HX 101 6HR MIN TEMP: 92; 6HR MAX TEMP: 98; FLORENCE CLEAR 92 73 53 SW6 29.93S HX 100 6HR MIN TEMP: 92; 6HR MAX TEMP: 97; MYRTLE BEACH PTCLDY 88 73 62 SW16 29.95S HX 96 N MYRTLE BEACH CLEAR 85 78 80 SW15 29.93S HX 96 6HR MIN TEMP: 85; 6HR MAX TEMP: 91; $$ GAZ063-065-086>088-099>101-113>116-118-119-134>141-150-280100- ...SOUTHEAST GEORGIA... CITY SKY/WX TMP DP RH WIND PRES REMARKS SAVANNAH ARPT PTCLDY 92 70 48 SW6 29.97S HX 97 6HR MIN TEMP: 92; 6HR MAX TEMP: 97; HUNTER AAF CLEAR 89 80 75 SE7 29.95S HX 106 6HR MIN TEMP: 89; 6HR MAX TEMP: 96; FORT STEWART PTCLDY 92 70 49 SW6 29.95R HX 98 6HR MIN TEMP: 92; 6HR MAX TEMP: 97; STATESBORO PTCLDY 90 77 64 CALM 29.97S HX 103 SYLVANIA NOT AVBL CLAXTON FAIR 90 73 58 SW3 29.98R HX 98 ...CSRA...CENTRAL AND FAR SOUTHEAST GEORGIA... CITY SKY/WX TMP DP RH WIND PRES REMARKS THOMSON NOT AVBL AUGUSTA-BUSH CLEAR 93 67 42 W9 29.95S HX 96 6HR MIN TEMP: 93; 6HR MAX TEMP: 99; AUGUSTA-DANIEL CLEAR 94 68 42 VRB3 29.97S HX 98 SWAINSBORO FAIR 90 68 48 W3 30.00R HX 93 VIDALIA CLEAR 91 66 43 W5 29.99S HX 94 EASTMAN FAIR 90 56 31 W5 30.03R HAZLEHURST FAIR 92 70 49 CALM 29.99S HX 97 ALMA CLEAR 92 69 47 SW3 30.00R HX 97 6HR MIN TEMP: 92; 6HR MAX TEMP: 96; WAYCROSS CLEAR 94 73 51 W6 30.00S HX 103 JESUP FAIR 90 77 66 W3 29.99R HX 102 BAXLEY FAIR 91 73 55 W3 29.99S HX 100 BRUNSWICK CLEAR 90 79 70 SE7 30.00S HX 105 SAINT SIMONS CLEAR 87 76 69 S10 29.99S HX 97 6HR MIN TEMP: 87; 6HR MAX TEMP: 94; $$ SCZ027-028-034-036>038-045-046-048>050-GAZ119-141-280100- ...LAKE AND SUPPLEMENTAL COASTAL OBSERVATIONS... STATION/POSITION TIME TEMP WIND PRES WAVE SWELL AIR SEA DIR/SP/G HT/PER HT/PER/DIR (UTC) (F) (DEG/KT/KT) (MB) (FT/S) (FT/S/D) WINYAH BAY 2345 88 210/ 9 1013.0F LAKE MURRAY 2300 93 220/ 10/ 13 1012.9S ACE BASIN NERRS 2300 89 CALM 1015.0S FORT PULASKI 0000 87 88 N/A SAPELO ISLAND 0000 88 180/ 11 1015.0S $$ ANZ835-935-AMZ111-154-330-350-352-354-370-450-454-472-280100- ...C-MAN AND BUOY OBSERVATIONS... STATION/POSITION TIME TEMP WIND PRES WAVE SWELL AIR SEA DIR/SP/G HT/PER HT/PER/DIR (UTC) (F) (DEG/KT/KT) (MB) (FT/S) (FT/S/D) BUOY 41004 2350 86 86 220/ 14/ 16 1014.5F 3/ 4 2/110/ 8 BUOY 41008 2350 87 87 160/ 14/ 16 1015.3F 2/ 3 FOLLY BEACH CMAN 0000 86 220/ 13/ 16 1015.0F CAPERS NEARSHORE 0008 85 84 230/ 14/ 19 1014.4F FRIPP NEARSHORE 0008 87 87 210/ 16/ 19 1014.0F STATION/POSITION TIME TEMP WIND PRES WAVE SWELL AIR SEA DIR/SP/G HT/PER HT/PER/DIR (UTC) (F) (DEG/KT/KT) (MB) (FT/S) (FT/S/D) 5E ST. MARYS GA 0001 86 N/A 2/ 3 FRYING PAN BUOY 0000 85 85 220/ 16/ 19 1014.0S BUOY 41025 2350 85 85 250/ 12/ 14 1013.7R 3/ 6 2/120/ 9 CAPE LOOKOUT NC 0000 85 230/ 9/ 12 1013.8R BUOY 41002 2350 83 85 220/ 12/ 14 1016.2R 4/ 6 3/250/ 6 BUOY 41010 2320 86 88 360/ 2/ 4 1017.8R ST AUGUSTINE FL 0000 84 88 160/ 13/ 14 1017.7R $$

USA.gov is the U.S. government's official web portal to all federal, state and local government web resources and services.